Preview of NWS' New Version of Forecast
This preview is not operational and should not be used for support decisions.

Regional Weather Roundup (RWR)

Issued by National Weather Service (NWS)

                            
000
ASUS43 KLSX 212207
RWRMO 

WEATHER SUMMARY FOR MISSOURI
NATIONAL WEATHER SERVICE SPRINGFIELD MO
500 PM CDT SAT SEP 21 2019

NOTE: "FAIR" INDICATES FEW OR NO CLOUDS BELOW 12,000 FEET WITH NO
       SIGNIFICANT WEATHER AND/OR OBSTRUCTIONS TO VISIBILITY.
       CURRENT SKY AND/OR WEATHER CONDITIONS ARE NOT AVAILABLE FOR
       CHILLICOTHE AND FARMINGTON.

MOZ001>031-035>038-043-044-053-054-212300-
...NORTHERN AND WESTERN MISSOURI...
  
CITY           SKY/WX    TMP DP  RH WIND       PRES   REMARKS
KANSAS CTY INT PTSUNNY   74  70  87 S16       29.94S                  
KANSAS C DTWN  PTSUNNY   75  69  81 S10G23    29.93S                  
LEE'S SUMMIT   LGT RAIN  74  70  87 S13G21    29.96F                  
ST JOSEPH      CLOUDY    77  69  76 S18G25    29.91S                  
CHILLICOTHE      N/A     74  72  93 S12G22    29.95F                  
KIRKSVILLE     MOSUNNY   75  72  90 S16G23    29.96F                  
     
$$
MOZ066>068-077>081-088>096-101>105-212300-
...SOUTHWEST MISSOURI...
  
CITY           SKY/WX    TMP DP  RH WIND       PRES   REMARKS
SPRINGFIELD    SUNNY     85  67  54 S16       30.03F                  
JOPLIN         PTSUNNY   82  70  66 S8        30.01F                  
BRANSON        PTSUNNY   84  66  54 S10G17    30.08F                  
               
$$
MOZ032>034-039>042-045>050-055>058-069>072-212300-
...CENTRAL MISSOURI...  
  
CITY           SKY/WX    TMP DP  RH WIND       PRES   REMARKS
COLUMBIA       PTSUNNY   77  71  82 S5        30.02F                  
JEFFERSON CITY PTSUNNY   80  70  71 S5        30.01F                  
ROLLA          MOSUNNY   82  66  58 S12G22    30.06F                  
SEDALIA        PTSUNNY   72  71  97 S10       30.01F                  
WHITEMAN AFB   CLOUDY    75  73  93 S15       29.96S                  
WARRENSBURG    CLOUDY    73  68  83 S14       29.99F                  
OSAGE BEACH    SUNNY     80  70  71 S6        30.04S                  
               
$$
MOZ051-052-059>065-212300-
...EAST CENTRAL MISSOURI...
  
CITY           SKY/WX    TMP DP  RH WIND       PRES   REMARKS
ST LOUIS INTL  PTSUNNY   83  69  62 S9        30.06S                  
SPIRIT OF STL  PTSUNNY   84  70  62 S7        30.03S                  
ST CHARLES       N/A    N/A N/A N/A MISG      30.03S                  
                   
$$
MOZ072>076-082>087-097>100-106>115-212300-
...SOUTH CENTRAL AND SOUTHEAST MISSOURI...
  
CITY           SKY/WX    TMP DP  RH WIND       PRES   REMARKS
CAPE GIRARDEAU FAIR      86  65  49 S9        30.08F                  
FARMINGTON     MOSUNNY   82  69  64 S16       30.11S                  
POPLAR BLUFF   FAIR      86  65  49 SW9       30.09S                  
WEST PLAINS    MOSUNNY   83  67  58 S13G20    30.10F                  
                                       
$$